Weather History for Worthington, MN

Change the Weather History Date:

Tuesday, July 9, 2013

  Actual Average Record
Temperature  
Mean Temperature 75 °F -  
Max Temperature 84 °F 78 °F 98 °F (1989)
Min Temperature 66 °F 59 °F 49 °F (1977)
Cooling Degree Days 10    
Growing Degree Days 25 (Base 50)    
Moisture  
Dew Point 66 °F    
Average Humidity 70    
Maximum Humidity 83    
Minimum Humidity 54    
Precipitation  
Precipitation 0.25 in - - ()
Sea Level Pressure  
Sea Level Pressure 29.95 in    
Wind  
Wind Speed 10 mph (West)    
Max Wind Speed 40 mph    
Max Gust Speed 51 mph    
Visibility 10 miles    
Events Thunderstorm    
Averages and records for this station are not official NWS values.
T = Trace of Precipitation, MM = Missing Value Source: NWS Daily Summary

Daily Weather History Graph

Daily Weather History Graph

Search for Another Location

Airport:

Trip Planner

Search our weather history database for the weather conditions in past years. The results will help you decide how hot, cold, wet, or windy it might be!

Date:

Astronomy

Jul. 09, 2013 Rise Set
Actual Time 5:49 AM CDT 9:04 PM CDT
Civil Twilight 5:14 AM CDT 9:39 PM CDT
Nautical Twilight 4:29 AM CDT 10:25 PM CDT
Astronomical Twilight 3:33 AM CDT 11:20 PM CDT
Moon 7:19 AM CDT (7/9) 9:37 PM CDT (7/9)
Length of Visible Light 16h 25m
Length of Day
15h 14m
New Moon, 2% of the Moon is Illuminated
Jul 9
New Moon
Jul 15
First Quarter
Jul 22
Full
Jul 29
Last Quarter
Aug 6
New

Hourly Weather History & Observations

Time (CDT) Temp. Heat Index Dew Point Humidity Pressure Visibility Wind Dir Wind Speed Gust Speed Precip Events Conditions
12:15 AM 73.4 °F - 66.2 °F 78% 29.95 in 10.0 mi ESE 5.8 mph - N/A   Clear
12:35 AM 73.4 °F - 66.2 °F 78% 29.96 in 8.0 mi East 4.6 mph - N/A   Clear
12:55 AM 73.4 °F - 66.2 °F 78% 29.96 in 9.0 mi East 4.6 mph - N/A   Clear
1:15 AM 73.4 °F - 66.2 °F 78% 29.96 in 10.0 mi SE 5.8 mph - N/A   Clear
1:35 AM 75.2 °F - 66.2 °F 73% 29.96 in 10.0 mi SE 6.9 mph - N/A   Clear
1:55 AM 75.2 °F - 66.2 °F 73% 29.95 in 10.0 mi SE 4.6 mph - N/A   Mostly Cloudy
2:15 AM 75.2 °F - 66.2 °F 73% 29.94 in 10.0 mi SE 4.6 mph - N/A   Mostly Cloudy
2:35 AM 73.4 °F - 66.2 °F 78% 29.93 in 10.0 mi East 4.6 mph - N/A   Overcast
2:55 AM 73.4 °F - 66.2 °F 78% 29.92 in 10.0 mi SSE 8.1 mph - N/A   Scattered Clouds
3:15 AM 75.2 °F - 68.0 °F 78% 29.90 in 10.0 mi SE 5.8 mph - N/A   Clear
3:35 AM 73.4 °F - 68.0 °F 83% 29.88 in 10.0 mi SE 6.9 mph - N/A   Clear
3:55 AM 73.4 °F - 68.0 °F 83% 29.88 in 9.0 mi SSE 8.1 mph - N/A   Clear
4:15 AM 73.4 °F - 68.0 °F 83% 29.90 in 8.0 mi South 5.8 mph - N/A   Clear
4:35 AM 75.2 °F - 68.0 °F 78% 29.91 in 10.0 mi South 8.1 mph - N/A   Clear
4:55 AM 75.2 °F - 68.0 °F 78% 29.92 in 10.0 mi SSE 8.1 mph - N/A   Partly Cloudy
5:15 AM 75.2 °F - 68.0 °F 78% 29.91 in 10.0 mi South 6.9 mph - N/A   Scattered Clouds
5:35 AM 75.2 °F - 68.0 °F 78% 29.92 in 10.0 mi South 8.1 mph - N/A   Partly Cloudy
5:55 AM 75.2 °F - 68.0 °F 78% 29.96 in 9.0 mi West 10.4 mph - N/A   Mostly Cloudy
6:15 AM 71.6 °F - 66.2 °F 83% 29.98 in 5.0 mi WNW 40.3 mph 50.6 mph 0.12 in Thunderstorm Thunderstorm
6:35 AM 66.2 °F - 60.8 °F 83% 29.99 in 5.0 mi NNW 18.4 mph 34.5 mph 0.19 in Thunderstorm Mostly Cloudy
6:55 AM 66.2 °F - 60.8 °F 83% 29.98 in 10.0 mi NNW 13.8 mph 20.7 mph 0.19 in   Overcast
7:15 AM 66.2 °F - 60.8 °F 83% 29.97 in 9.0 mi WNW 10.4 mph - 0.04 in   Overcast
7:35 AM 66.2 °F - 60.8 °F 83% 29.87 in 10.0 mi SE 10.4 mph - 0.05 in   Mostly Cloudy
7:55 AM 66.2 °F - 60.8 °F 83% 29.87 in 10.0 mi SSE 10.4 mph - 0.05 in   Scattered Clouds
8:15 AM 68.0 °F - 62.6 °F 83% 29.87 in 10.0 mi South 10.4 mph - N/A   Scattered Clouds
8:35 AM 69.8 °F - 62.6 °F 78% 29.86 in 10.0 mi South 10.4 mph - N/A   Clear
8:55 AM 71.6 °F - 64.4 °F 78% 29.86 in 10.0 mi SSW 12.7 mph - N/A   Clear
9:15 AM 73.4 °F - 64.4 °F 73% 29.87 in 10.0 mi SSW 11.5 mph - N/A   Clear
9:35 AM 75.2 °F - 66.2 °F 73% 29.88 in 10.0 mi SSW 11.5 mph 17.3 mph 0.01 in   Clear
9:55 AM 77.0 °F - 66.2 °F 69% 29.89 in 10.0 mi SW 15.0 mph 20.7 mph 0.01 in   Clear
10:15 AM 78.8 °F - 66.2 °F 65% 29.90 in 10.0 mi SW 12.7 mph - N/A   Clear
10:35 AM 78.8 °F - 66.2 °F 65% 29.91 in 10.0 mi WSW 16.1 mph 20.7 mph N/A   Clear
10:55 AM 80.6 °F 82.7 °F 66.2 °F 61% 29.92 in 10.0 mi WSW 17.3 mph 21.9 mph N/A   Clear
11:15 AM 80.6 °F 83.2 °F 68.0 °F 65% 29.93 in 10.0 mi WSW 16.1 mph 20.7 mph N/A   Clear
11:35 AM 80.6 °F 83.2 °F 68.0 °F 65% 29.94 in 10.0 mi SW 15.0 mph - N/A   Clear
11:55 AM 82.4 °F 86.3 °F 69.8 °F 66% 29.94 in 10.0 mi WSW 11.5 mph - N/A   Clear
12:15 PM 82.4 °F 86.3 °F 69.8 °F 66% 29.94 in 10.0 mi WSW 16.1 mph - N/A   Clear
12:35 PM 82.4 °F 86.3 °F 69.8 °F 66% 29.94 in 8.0 mi West 15.0 mph 23.0 mph N/A   Partly Cloudy
12:55 PM 82.4 °F 86.3 °F 69.8 °F 66% 29.94 in 10.0 mi West 17.3 mph 24.2 mph N/A   Mostly Cloudy
1:15 PM 84.2 °F 86.6 °F 66.2 °F 55% 29.94 in 10.0 mi West 18.4 mph - N/A   Partly Cloudy
1:35 PM 84.2 °F 86.6 °F 66.2 °F 55% 29.94 in 10.0 mi WNW 12.7 mph 19.6 mph N/A   Partly Cloudy
1:55 PM 84.2 °F 86.6 °F 66.2 °F 55% 29.93 in 10.0 mi WNW 16.1 mph 19.6 mph N/A   Clear
2:15 PM 84.2 °F 86.6 °F 66.2 °F 55% 29.94 in 10.0 mi WNW 13.8 mph - N/A   Clear
2:35 PM 84.2 °F 86.6 °F 66.2 °F 55% 29.94 in 10.0 mi NW 15.0 mph 19.6 mph N/A   Clear
2:55 PM 84.2 °F 86.6 °F 66.2 °F 55% 29.95 in 10.0 mi WNW 13.8 mph 21.9 mph N/A   Clear
3:15 PM 82.4 °F 84.6 °F 66.2 °F 58% 29.95 in 10.0 mi WNW 12.7 mph - N/A   Clear
3:35 PM 82.4 °F 84.6 °F 66.2 °F 58% 29.95 in 10.0 mi WNW 13.8 mph - N/A   Clear
3:55 PM 82.4 °F 83.9 °F 64.4 °F 54% 29.96 in 10.0 mi WNW 13.8 mph - N/A   Clear
4:15 PM 82.4 °F 84.6 °F 66.2 °F 58% 29.96 in 10.0 mi WNW 12.7 mph 17.3 mph N/A   Clear
4:35 PM 82.4 °F 84.6 °F 66.2 °F 58% 29.96 in 10.0 mi WNW 13.8 mph 21.9 mph N/A   Clear
4:55 PM 82.4 °F 84.6 °F 66.2 °F 58% 29.96 in 10.0 mi NW 16.1 mph 20.7 mph N/A   Clear
5:15 PM 82.4 °F 83.9 °F 64.4 °F 54% 29.96 in 10.0 mi NW 15.0 mph - N/A   Clear
5:35 PM 82.4 °F 83.9 °F 64.4 °F 54% 29.97 in 10.0 mi NW 15.0 mph 19.6 mph N/A   Clear
5:55 PM 82.4 °F 83.9 °F 64.4 °F 54% 29.97 in 10.0 mi NW 15.0 mph - N/A   Clear
6:15 PM 80.6 °F 82.3 °F 64.4 °F 58% 29.97 in 10.0 mi NW 13.8 mph 18.4 mph N/A   Clear
6:35 PM 82.4 °F 83.9 °F 64.4 °F 54% 29.97 in 10.0 mi NW 13.8 mph 17.3 mph N/A   Clear
6:55 PM 80.6 °F 82.3 °F 64.4 °F 58% 29.97 in 10.0 mi NNW 12.7 mph - N/A   Clear
7:15 PM 80.6 °F 82.3 °F 64.4 °F 58% 29.97 in 10.0 mi NNW 11.5 mph - N/A   Clear
7:35 PM 80.6 °F 82.3 °F 64.4 °F 58% 29.97 in 10.0 mi NNW 12.7 mph - N/A   Clear
7:55 PM 78.8 °F - 64.4 °F 61% 29.97 in 10.0 mi NNW 11.5 mph - N/A   Clear
8:15 PM 78.8 °F - 64.4 °F 61% 29.97 in 8.0 mi NNW 8.1 mph - N/A   Clear
8:35 PM 75.2 °F - 66.2 °F 73% 29.97 in 10.0 mi NNW 8.1 mph - N/A   Clear
8:55 PM 75.2 °F - 64.4 °F 69% 29.98 in 10.0 mi NNW 8.1 mph - N/A   Clear
9:15 PM 73.4 °F - 64.4 °F 73% 29.99 in 10.0 mi NNW 5.8 mph - N/A   Clear
9:35 PM 71.6 °F - 64.4 °F 78% 30.00 in 10.0 mi NW 4.6 mph - N/A   Clear
9:55 PM 73.4 °F - 64.4 °F 73% 30.01 in 10.0 mi West 4.6 mph - N/A   Clear
10:15 PM 71.6 °F - 64.4 °F 78% 30.02 in 10.0 mi West 5.8 mph - N/A   Clear
10:35 PM 71.6 °F - 64.4 °F 78% 30.02 in 10.0 mi West 6.9 mph - N/A   Scattered Clouds
10:55 PM 71.6 °F - 64.4 °F 78% 30.02 in 10.0 mi West 5.8 mph - N/A   Scattered Clouds
11:15 PM 71.6 °F - 62.6 °F 73% 30.02 in 10.0 mi WNW 5.8 mph - N/A   Clear
11:35 PM 69.8 °F - 62.6 °F 78% 30.03 in 10.0 mi NW 4.6 mph - N/A   Clear
11:55 PM 69.8 °F - 62.6 °F 78% 30.03 in 10.0 mi NW 8.1 mph - N/A   Clear